International Virtual Aviation Organisation

Eastern Europe and Northern Asia MCD

 

Карточка аэропорта URMM

Внимание!
Информация на этой странице в стадии наполнения.
Если вы не увидели какой-то информации, или заметили неточность - пожалуйста сообщите нам!
Спасибо!
Команда RU-STAFF
Название аэропортаМинеральные Воды
Название аэропорта (англ.)Mineralnyye Vody
Превышение1047 ft. (319.1 m.)
Координаты44°13.608', 43°4.9799999999999'
Высота перехода900m
Эшелон переходаQFE>=704mm:FL060; QFE<704mm:FL070
Коды ответчика1050-1057
Зона ОрВДРостов-на-Дону РПИ (URRV)
Данные METARURMM 200930Z 11012MPS 9999 NSC 23/09 Q1004 R12/090070 TEMPO 10010G18MPS RMK QFE725/0967
Проноз погоды (TAF)URMM 200800Z 2009/2109 10007G14MPS 9999 BKN020 TX23/2012Z TN08/2103Z TEMPO 2012/2015 6000 -SHRA BKN016 BKN020CB BECMG 2015/2016 30003G08MPS TEMPO 2016/2109 VRB08G18MPS 6000 -TSRA BKN016 BKN020CB
NOTAMshow/hide NOTAM
AWOS   TABLE

Информация о ВПП

ВПП Длина ВПП (м.) Покрытие Курс ВПП Частота ILS
123900Бетон115111.7
303900Бетон295109.3

Диспетчерские позиции

Позывной Наименование органа УВД Частота
URMM_APPМинводы-Подход119.3
URMM_R_APPМинводы-Круг120.7
URMM_TWRМинводы-Старт128.0
URMM_GNDМинводы-Руление121.9



Спутниковое изображение